#timestamp,LO_Frequency,Hit 
1503500415.9,286047003.3,N
1503500435.7,286047002.4,N
1503500455.5,286046999.4,N
1503500475.4,286046997.4,N
1503500495.2,286046997.4,N
1503500515.0,286046997.3,N
1503500515.9,286046997.3,N
1503500535.8,286046997.1,N
1503500555.6,286046998.8,N
1503500575.4,286046997.6,N
1503500595.3,286046994.9,P
1503500615.1,286046997.5,N
1503500616.0,286046997.5,N
1503500635.8,286046993.6,P
1503500655.7,286046996.6,N
1503500675.5,286046998.4,N
1503500695.3,286047001.2,N
1503500715.2,286047001.1,N
1503500735.9,286047002.1,N
1503500755.7,286047004.4,N
1503500775.6,286047000.7,N
1503500795.4,286046998.1,N
1503500815.2,286046998.3,N
1503500835.0,286046996.6,N
1503500836.0,286046996.6,N
1503500855.8,286046999.2,N
1503500875.6,286046997.8,N
1503500895.4,286046995.0,N
1503500915.3,286046995.7,N
1503500935.1,286046996.6,N
1503500955.8,286046996.9,N
1503500975.7,286047002.7,N
1503500995.5,286047001.9,N
1503501015.3,286047002.1,N
1503501035.2,286047002.5,N
1503501055.9,286047006.3,N
1503501075.7,286047006.5,N
1503501095.6,286047006.1,N
1503501115.4,286047007.1,N
1503501135.2,286047006.7,N
1503501155.0,286047004.8,N
1503501156.0,286047004.8,N
1503501175.8,286047003.9,N
1503501195.6,286047002.2,N
1503501215.4,286046999.8,N
1503501235.3,286047000.8,N
1503501255.1,286046999.8,N
1503501275.8,286046999.1,N
1503501295.7,286046996.8,N
1503501315.5,286046997.4,N
1503501335.3,286046999.6,N
1503501355.2,286046998.4,N
1503501375.9,286046996.6,N
1503501395.7,286046997.8,N
1503501415.6,286046994.9,N
1503501435.4,286046996.7,N
1503501455.2,286046997.6,N
1503501475.1,286046997.4,N
1503501476.0,286046997.4,N
1503501495.8,286046995.5,N
1503501515.6,286046994.0,N
1503501535.5,286046992.4,N
1503501555.3,286046990.5,N
1503501575.1,286046991.8,N
1503501595.8,286046992.3,N
1503501615.7,286046997.8,N
1503501635.5,286046997.7,N
1503501655.3,286046995.4,N
1503501675.2,286046991.8,N
1503501695.0,286046992.2,N
1503501695.9,286046992.2,N
1503501715.7,286046991.9,N
1503501735.6,286046993.6,N
1503501755.4,286046993.4,N
1503501775.2,286046996.1,N
1503501795.1,286046999.6,N
1503501796.0,286046999.6,N
1503501815.8,286046996.9,N
1503501835.6,286046996.7,N
1503501855.5,286046995.9,N
1503501875.3,286046995.0,N
1503501895.1,286046997.9,N
1503501915.9,286046996.6,N
1503501935.7,286047000.0,N
1503501955.5,286047000.8,N
1503501975.4,286046995.3,N
1503501995.2,286046995.5,N
1503502015.0,286046993.5,N
1503502015.9,286046993.5,N
1503502035.7,286046996.0,N
1503502055.6,286046993.4,N
1503502075.4,286046995.1,N
1503502095.2,286046997.7,N
1503502115.1,286046997.7,N
1503502116.0,286046997.7,N
1503502135.8,286046996.2,N
1503502155.6,286046996.1,N
1503502175.5,286046996.1,N
1503502195.3,286046995.6,N
1503502215.1,286046996.2,N
1503502235.9,286046996.0,N
1503502255.7,286046997.5,N
1503502275.5,286046995.6,N
1503502295.4,286046995.1,N
1503502315.2,286047000.8,N
1503502335.0,286046998.6,N
1503502335.9,286046998.6,N
1503502355.8,286046999.2,N
1503502375.6,286046999.2,N
1503502395.4,286046999.4,N
1503502415.3,286046996.6,N
1503502435.1,286046998.7,N
1503502436.0,286046998.7,N
1503502455.8,286046996.2,N
1503502475.6,286046995.7,N
1503502495.5,286046992.2,P
1503502515.3,286046997.1,N
1503502535.2,286046996.8,N
1503502555.9,286046997.9,N
1503502575.7,286046994.1,N
1503502595.6,286046992.1,P
1503502615.4,286046996.7,N
1503502635.2,286046997.1,N
1503502655.1,286046997.1,N
1503502656.0,286046997.1,N
1503502675.8,286046998.5,N
1503502695.6,286046997.1,N
1503502715.4,286046995.9,N
1503502735.3,286046992.6,P
1503502755.1,286046991.7,P
1503502775.9,286046996.0,N
1503502795.7,286046995.6,N
1503502815.5,286046997.3,N
1503502835.3,286047001.0,N
1503502855.2,286046999.5,N
1503502875.9,286046995.0,N
1503502895.7,286046997.5,N
1503502915.6,286046997.9,N
1503502935.4,286046994.3,N
1503502955.2,286046991.3,P
1503502975.1,286046993.7,N
1503502976.0,286046993.7,P
1503502995.8,286046992.1,P
1503503015.6,286046996.3,P
1503503035.5,286046992.0,P
1503503055.3,286046993.4,P
1503503075.2,286047000.2,N
1503503095.9,286046999.0,N
1503503115.7,286046999.1,N
1503503135.5,286046998.6,N
1503503155.4,286047002.7,N
1503503175.2,286047002.2,N
1503503195.0,286047005.3,N
1503503195.9,286047005.3,N
1503503215.8,286047008.8,N
1503503235.6,286047008.2,N
1503503255.4,286047008.4,N
1503503275.3,286047006.9,N
1503503295.1,286047008.1,N
1503503296.0,286047008.1,N
1503503315.8,286047009.8,N
1503503335.7,286047007.8,N
1503503355.5,286047008.8,N
1503503375.3,286047006.5,N
1503503395.2,286047007.3,N
1503503415.9,286047004.9,N
1503503435.7,286047010.3,N
1503503455.5,286047009.8,N
1503503475.4,286047011.7,N
1503503495.2,286047015.1,P
1503503515.1,286047013.5,N
1503503516.0,286047013.5,P
1503503535.8,286047012.5,P
1503503555.6,286047004.1,P
1503503575.5,286047006.1,N
1503503595.3,286047006.0,N
1503503615.1,286047001.8,N
1503503635.9,286047000.8,N
1503503655.7,286047001.5,N
1503503675.5,286047001.8,N
1503503695.4,286047000.5,N
1503503715.2,286046999.0,N
1503503735.0,286046995.1,N
1503503735.9,286046995.1,N
1503503755.7,286046993.7,N
1503503775.6,286046992.7,N
1503503795.4,286046992.1,N
1503503815.2,286046995.9,N
1503503835.1,286046995.4,N
1503503836.0,286046995.4,N
1503503855.8,286046999.2,N
1503503875.6,286046999.0,N
1503503895.5,286046997.1,N
1503503915.3,286046999.1,N
1503503935.1,286046995.6,N
1503503955.9,286046992.4,N
1503503975.7,286046992.0,N
1503503995.5,286046995.2,N
